sat.trackr.live / text

‹ back to catalog

STARLINK-31735

NORAD 60054 · 2024-112S

PAYLOAD ACTIVE UNKNOWN

§ Identity

Operator
Country
US
Launch date
2024-06-08
Launch site
AFWTR
Launch vehicle
Mass (kg)
RCS (m²)

Purposes: comms

External: N2YO · Heavens-Above · Gunter

§ Orbital elements

Epoch: 2026-09-21T22:36:33.140736Z

Period
93.85 min
Inclination
53.1601°
Eccentricity
0.0001550
Mean motion
15.34385774 rev/d
Perigee alt
461.7 km
Apogee alt
463.8 km
Semi-major
6,840.9 km
B*
1.6439e-5
RAAN
245.0141°
Arg perigee
64.6046°
Mean anomaly
295.5117°
Rev number
12,866

§ Raw data

STARLINK-317351 60054U 24112S   26264.94205024  .00000179  00000+0  16439-4 0  99942 60054  53.1601 245.0141 0001550  64.6046 295.5117 15.34385774128667

JSON: /api/v1/satellites/60054 · /tle

For live sub-satellite position, see the globe view (requires WebGL).

§ Visibility from observer

Set your observer location to see the next 7 days of passes ≥ 10°. The values pass through the URL so the page stays shareable.

No JS? Fill the form by hand. The geolocation button needs JavaScript.